Location: UFOWorks Observatory
(42.1050°N, 72.2350°W)
Time: 02:53:30
(UTC-04:00)

ISS - Visible Passes

Search period start: 01 November 2014 00:00
Search period end: 10 November 2014 23:00
Orbit: 412 x 417 km, 51.6° (Epoch: 01 November)

Date Brightness Start Highest point End Pass type
(mag) Time Alt. Az. Time Alt. Az. Time Alt. Az.
07 Nov -0.1 05:34:42 10° SSE 05:36:33 14° SE 05:38:25 10° E visible
09 Nov -1.7 05:30:58 10° SSW 05:34:02 37° SE 05:37:08 10° ENE visible
10 Nov -0.8 04:42:14 11° S 04:44:41 21° SE 04:47:16 10° E visible
